Theta_e
274 273 272 271 271 269 269 268 269 268 267 267 266 265 265 265 265 265 264 264 264 263 263 263 263 263 263 263 262 262 262 262 262 261 261 261 261 261 261 261 260 260 260 260 260 260 259 259 259 259 260 258 258 258 259 259 260 260 259 260 259 259 259 258 256 256 260 262 262 261 263 264 263 264 263 264 266 267 269 268 269 269 269 269 269
273 273 272 270 269 269 269 269 268 267 267 267 266 265 265 265 265 264 263 264 264 263 263 263 263 263 262 262 262 262 262 262 261 261 261 260 260 261 260 260 260 260 260 259 260 260 259 258 258 258 258 258 258 258 258 258 258 259 259 259 259 258 260 259 258 257 256 260 260 262 262 263 261 265 263 264 264 266 266 266 267 267 267 267 268
273 272 270 269 268 269 269 268 268 267 267 266 266 266 266 265 264 264 264 264 264 263 263 263 263 262 262 262 262 262 262 261 261 261 261 260 260 260 260 260 260 259 259 259 259 259 258 258 258 258 257 257 257 257 258 257 258 258 258 258 258 259 260 260 258 257 257 258 260 260 261 262 262 263 264 264 264 264 264 264 264 265 266 267 267
271 270 269 268 268 268 268 268 267 267 266 266 266 266 265 264 264 264 264 263 263 263 263 263 262 262 262 262 262 261 261 261 261 261 261 260 260 260 260 260 259 259 259 258 258 258 258 257 257 258 257 257 257 257 258 258 257 258 257 258 258 258 259 259 259 258 258 257 259 260 261 261 262 263 263 264 263 263 263 263 265 265 265 266 267
269 269 268 267 267 267 267 267 267 267 266 266 265 265 264 264 264 263 263 263 263 263 263 263 262 262 261 261 261 261 261 261 261 260 260 260 260 260 260 259 259 259 259 258 259 258 258 257 257 257 257 256 256 257 257 257 257 257 257 258 258 258 259 259 259 259 258 257 258 260 261 261 262 262 262 261 262 262 263 262 263 264 265 267 267
269 268 267 267 267 266 267 266 266 266 266 265 265 264 264 264 263 263 263 263 263 263 262 262 262 262 262 262 261 261 261 261 260 260 260 260 260 260 259 259 259 258 258 258 258 258 257 257 257 257 256 255 255 255 256 256 256 256 256 257 257 258 257 258 259 259 258 258 258 258 260 260 260 261 262 262 261 261 262 263 263 263 264 264 265
268 268 267 267 267 267 266 266 266 266 265 265 264 264 264 263 263 263 263 263 262 262 262 262 262 262 262 262 261 261 261 260 259 259 259 259 258 258 258 258 258 258 258 258 258 258 257 257 257 257 256 255 255 255 255 255 255 255 256 256 256 256 256 256 257 257 257 257 258 258 258 260 260 259 261 262 262 262 261 261 260 262 263 263 263
267 267 267 266 266 266 267 266 266 265 265 264 264 264 263 263 263 263 263 262 262 262 261 262 262 262 262 261 261 261 260 259 259 258 258 258 257 257 257 257 257 257 257 257 257 257 257 257 257 257 256 256 255 255 255 255 255 255 256 255 256 255 255 256 256 256 257 257 257 257 258 258 260 261 262 262 261 260 261 260 259 260 261 263 264
267 266 266 265 265 266 266 265 265 264 264 264 263 263 263 263 262 262 261 261 261 261 261 261 260 260 260 260 260 260 259 258 258 258 257 257 256 256 257 257 257 256 256 256 257 256 256 256 256 256 257 259 260 259 259 258 256 255 255 255 255 255 255 255 255 255 256 256 256 257 257 257 258 259 259 259 258 258 261 262 260 261 261 261 262
266 265 264 264 265 265 264 262 263 263 262 262 261 261 261 261 261 260 260 260 260 260 258 259 258 258 258 258 258 258 257 257 259 262 264 259 257 257 257 258 258 257 257 257 257 257 256 256 257 259 259 260 260 261 262 262 262 260 258 257 257 257 257 257 256 256 256 256 256 256 256 256 257 258 258 259 260 261 260 260 259 260 260 260 261
264 264 264 263 263 262 262 261 261 261 261 261 260 259 261 259 259 259 259 257 258 257 258 258 257 257 257 256 256 256 256 257 261 266 267 268 265 263 262 261 260 260 259 259 260 260 259 258 257 259 260 261 261 263 263 263 264 264 264 264 263 260 258 258 258 258 257 257 257 257 257 257 258 259 259 259 260 260 260 260 260 260 258 257 257
263 263 263 262 261 261 261 260 259 259 259 259 260 259 258 257 257 258 257 257 257 256 256 256 256 256 256 255 255 255 256 259 265 267 268 268 268 264 264 263 263 263 262 261 261 261 260 259 258 258 259 259 259 259 261 263 263 263 264 264 264 265 266 263 260 259 258 258 258 258 258 258 259 259 259 260 260 260 261 260 260 259 259 258 259
262 262 261 261 260 260 259 259 259 259 258 258 258 257 256 257 256 255 256 257 255 255 257 257 256 255 255 255 254 255 254 261 265 267 268 268 267 266 264 264 263 263 262 262 262 261 259 258 257 258 258 261 261 259 258 258 261 262 263 263 263 264 266 267 267 263 262 260 260 260 260 261 260 261 262 262 263 260 261 261 260 260 260 260 260
261 261 260 260 260 259 259 258 258 258 258 257 256 255 255 256 256 256 256 256 256 256 255 256 256 254 254 254 254 254 254 258 264 266 267 267 268 266 263 263 263 263 262 262 261 260 258 257 256 256 255 256 258 258 257 257 257 257 257 257 257 259 261 264 263 264 263 261 260 258 260 260 259 260 261 262 261 259 260 259 261 260 260 260 262
260 260 260 259 259 258 258 257 258 257 257 256 255 255 256 255 256 256 255 256 256 255 255 255 255 255 254 254 254 254 254 261 265 266 267 267 268 267 264 263 263 263 262 261 259 258 257 257 256 256 256 256 256 257 256 256 256 255 255 255 256 256 257 257 257 257 258 258 258 258 258 259 259 260 260 261 260 260 260 260 260 261 261 262 262
260 259 259 259 258 258 257 257 257 257 257 255 255 256 256 255 255 256 255 255 255 254 254 254 254 254 254 254 253 253 254 263 265 266 266 266 267 264 263 262 262 261 260 258 257 256 256 256 255 255 255 255 257 262 262 259 257 256 255 255 255 256 256 260 263 264 261 259 258 258 258 259 263 261 261 261 261 262 262 263 262 262 261 259 259
260 259 259 259 258 257 257 256 257 256 256 255 255 255 256 255 255 254 254 255 255 254 254 254 254 254 254 253 253 253 254 259 264 265 266 267 265 262 262 261 261 260 260 259 257 256 256 255 255 255 255 255 258 263 265 263 260 259 258 257 257 257 257 258 264 266 267 268 267 268 268 268 268 269 269 269 267 266 263 261 260 261 259 258 259
260 259 259 258 257 256 257 256 256 256 255 255 255 256 255 255 255 255 255 254 255 254 254 254 254 253 253 253 253 253 254 257 263 264 265 266 265 262 261 261 260 260 259 258 256 255 255 259 258 255 254 255 261 264 265 263 260 259 258 257 256 257 258 260 260 261 267 269 269 270 269 268 268 265 264 266 267 266 260 258 260 261 259 260 259
260 259 259 258 258 256 256 255 256 255 255 255 255 255 255 255 255 254 254 254 254 254 254 253 253 253 253 253 256 255 254 256 261 263 265 265 263 261 260 259 258 258 257 257 256 255 255 257 259 259 258 258 263 265 265 261 259 258 258 258 257 258 260 260 260 259 259 259 259 258 257 260 256 254 257 261 263 262 259 259 260 258 258 258 259
261 259 258 257 256 256 255 255 255 255 255 254 254 254 254 253 253 254 254 253 253 253 253 252 252 253 253 253 253 254 253 254 255 262 263 264 265 262 261 259 258 258 259 258 257 254 254 254 257 262 264 265 265 264 264 262 261 260 260 259 259 259 260 260 260 260 259 258 253 253 252 252 253 252 251 252 255 258 259 259 259 260 259 258 258
259 257 257 255 256 256 255 255 255 254 254 254 254 253 251 254 253 252 252 252 252 252 252 252 252 252 253 253 253 253 253 252 253 261 263 264 265 264 260 260 260 259 258 257 256 255 254 254 254 257 261 264 265 266 266 267 267 263 262 260 260 262 263 259 259 262 256 256 255 253 251 251 251 251 251 251 253 255 256 258 258 259 259 258 258
258 255 257 257 256 255 255 254 254 254 253 252 251 252 252 251 252 251 250 251 251 251 251 251 252 251 252 252 251 252 252 254 252 257 261 263 264 265 261 260 260 259 258 258 257 256 255 255 254 257 260 264 265 266 266 266 267 264 263 266 267 267 262 258 257 255 254 253 251 250 250 250 250 251 251 252 253 255 255 255 256 257 259 259 259
257 256 256 256 254 254 254 252 253 252 252 251 251 251 251 250 250 250 250 251 250 250 250 250 250 250 250 251 251 251 251 251 254 253 257 262 263 264 264 263 264 262 260 259 258 258 257 256 257 259 262 264 265 265 266 267 266 264 267 267 267 264 259 255 255 254 252 251 250 250 249 249 250 250 251 251 252 253 254 254 255 256 258 260 261
255 255 254 254 254 252 252 251 251 250 251 251 250 250 250 250 249 250 250 250 250 249 249 249 248 248 248 249 250 250 250 250 252 254 254 259 262 263 264 264 264 261 261 259 259 259 258 256 256 262 264 263 263 265 266 266 263 265 265 265 263 260 255 253 252 250 251 250 249 248 249 248 249 249 250 252 252 253 254 255 255 254 255 256 258
254 254 253 253 252 250 251 250 250 248 249 249 249 250 250 248 250 249 248 249 249 249 249 248 248 248 249 249 249 249 249 249 250 252 254 255 260 262 263 264 263 262 260 259 258 258 259 262 263 262 261 262 264 265 263 261 262 262 261 261 261 250 249 247 248 247 246 248 248 249 248 250 250 251 252 253 255 255 254 254 254 254 255 255 256
251 253 252 251 251 249 248 249 248 249 249 248 250 250 250 250 250 250 249 249 249 249 249 249 248 248 248 249 249 249 249 249 250 250 252 254 255 258 261 260 259 259 259 258 259 260 263 262 262 261 261 261 259 256 255 256 259 260 261 260 248 247 247 246 246 246 248 247 248 249 250 248 248 249 251 253 251 251 251 252 252 253 253 253 254
254 253 252 252 250 248 249 250 250 249 247 247 249 249 249 249 249 249 249 249 249 248 249 249 249 249 248 248 248 249 249 249 250 250 250 250 250 251 252 253 255 256 255 254 255 254 255 256 256 257 258 259 259 259 259 259 256 252 250 248 247 246 246 246 247 247 248 248 248 248 248 249 248 250 248 248 250 250 250 252 252 252 253 253 253
253 253 252 251 251 249 250 252 252 251 250 249 249 248 248 248 248 249 249 249 248 248 248 248 249 248 248 248 248 248 249 249 249 250 250 250 250 251 251 251 250 250 250 251 251 252 253 255 255 254 253 252 252 250 250 250 249 250 248 245 245 246 251 254 254 247 246 246 246 246 248 247 247 247 247 247 248 250 251 251 252 252 252 252 251
252 250 250 248 250 250 250 250 250 250 250 249 249 250 249 249 249 249 250 250 250 250 249 250 250 249 249 249 249 249 249 249 250 254 253 254 253 252 251 250 250 251 253 255 254 253 253 252 251 252 251 252 251 251 250 249 248 246 245 243 242 241 243 243 244 247 246 245 246 246 247 245 246 246 248 247 248 249 249 250 251 250 251 251 250
249 251 250 249 250 249 250 249 248 249 249 249 249 249 252 254 252 251 251 254 255 257 258 253 252 252 252 252 252 251 251 253 259 263 264 264 261 259 258 258 257 255 256 256 256 254 253 253 253 252 252 252 252 251 251 250 249 248 246 249 248 244 244 245 244 246 246 246 246 246 246 246 245 245 246 247 248 248 250 252 250 250 250 250 250
250 251 250 250 251 250 250 249 248 248 248 248 247 248 248 251 258 261 259 259 258 261 263 264 265 262 258 255 256 257 257 258 262 263 263 262 263 262 262 262 262 261 261 258 256 255 254 253 253 251 251 250 250 250 249 248 248 247 248 247 245 247 248 246 245 246 246 246 247 246 246 245 246 245 246 248 248 248 246 249 250 250 249 249 249
251 252 250 250 250 250 249 249 248 248 248 247 248 247 247 248 249 254 258 257 259 262 263 264 264 263 262 261 260 259 260 261 260 263 263 263 261 261 261 262 263 262 261 261 255 252 250 251 248 247 245 245 247 246 246 245 245 246 245 245 246 245 246 246 246 244 244 245 244 245 245 245 245 246 247 248 249 248 246 247 247 248 249 249 249
250 250 250 250 250 250 249 248 248 248 247 248 247 246 247 247 248 249 251 257 259 257 259 261 262 262 263 263 263 262 260 259 260 262 262 260 260 258 259 262 260 260 260 252 247 247 244 244 244 245 245 246 245 245 246 245 245 245 245 245 245 245 245 246 247 245 244 245 244 245 245 245 246 247 248 248 247 246 247 247 247 248 248 248 249
249 250 249 249 249 248 248 248 247 248 247 247 247 247 247 247 247 248 248 248 249 252 255 256 256 256 256 257 259 260 260 261 259 258 257 258 261 261 259 259 261 261 255 246 245 245 243 243 244 244 245 245 245 245 245 245 245 245 244 244 244 242 243 241 240 243 243 244 244 244 245 245 246 245 245 244 245 246 246 247 247 247 247 247 248
247 249 251 251 248 248 248 248 247 247 247 246 247 247 248 248 248 248 247 247 247 248 248 249 252 254 253 253 254 254 255 255 255 255 257 260 260 259 260 250 247 246 246 242 244 243 243 244 244 245 244 244 245 244 245 244 244 244 245 244 243 242 242 241 243 241 243 242 243 243 243 245 244 245 245 244 244 244 245 246 246 247 247 248 248
246 247 246 248 248 248 247 247 247 247 247 247 247 248 248 248 248 248 248 248 248 247 248 249 249 251 253 253 253 254 254 255 254 256 259 260 259 259 249 246 246 246 246 246 243 244 244 244 244 244 244 244 245 244 244 244 244 244 244 243 244 243 242 242 244 243 242 243 243 244 245 243 244 244 243 244 244 245 245 245 246 247 248 248 248
246 246 246 246 246 246 246 246 246 246 248 248 248 248 248 248 248 248 248 247 247 248 248 248 249 249 251 250 252 253 254 254 257 259 259 260 259 254 247 246 245 245 245 245 245 245 245 245 245 245 245 245 244 244 244 244 244 244 245 244 243 243 242 241 242 243 242 242 242 243 241 242 242 242 243 243 244 244 244 246 246 247 248 249 250
246 247 247 247 245 244 245 246 247 249 249 248 248 248 248 248 247 248 248 248 248 248 248 248 249 248 247 248 251 250 250 252 253 253 253 252 250 247 247 247 246 245 245 245 246 246 245 246 245 245 245 245 245 244 244 243 243 243 243 243 243 243 245 246 247 245 243 242 241 241 242 242 241 241 244 243 244 244 245 246 246 246 247 248 248
244 248 250 250 250 248 247 247 248 247 248 248 247 247 248 248 247 247 247 247 247 247 247 247 247 247 247 248 247 248 249 247 247 246 247 247 247 247 247 247 247 247 247 247 247 246 246 246 246 246 245 245 244 244 244 244 243 243 243 242 243 242 244 243 243 243 242 241 240 240 240 241 240 241 242 242 243 244 244 245 246 246 246 247 247
246 244 248 250 248 249 248 249 249 248 248 248 247 247 247 247 247 247 247 247 247 247 247 247 247 247 247 246 246 247 246 247 247 247 247 247 247 247 247 247 247 247 247 247 247 247 246 246 246 246 245 245 245 244 244 244 244 244 243 243 242 242 242 242 242 242 241 240 240 240 241 241 241 241 241 242 243 244 244 245 246 247 247 247 247
245 245 248 249 249 248 248 248 248 248 247 247 248 247 247 248 248 248 247 247 247 247 247 247 247 247 248 249 251 251 250 249 249 249 249 248 248 247 247 248 248 247 248 247 247 247 247 246 246 246 245 245 245 244 244 244 244 244 243 243 243 243 243 242 242 241 241 241 240 241 240 241 242 242 242 242 246 246 246 247 246 246 247 247 247
244 245 246 246 247 247 247 248 248 248 248 248 247 247 247 248 248 247 247 247 247 247 247 247 247 247 249 251 251 252 250 249 249 249 248 248 248 248 248 249 249 249 248 248 248 247 247 246 246 246 245 245 244 244 244 243 243 243 243 243 243 243 243 243 242 242 241 241 240 241 240 242 243 244 244 247 243 243 244 245 245 246 246 247 247
246 245 246 246 246 247 247 248 248 246 246 246 246 248 248 248 248 248 248 247 247 247 247 247 247 248 248 250 250 250 249 248 248 248 248 248 248 249 249 249 249 249 249 249 249 248 247 247 246 246 246 245 245 245 244 244 244 243 243 243 243 243 243 243 243 242 242 241 241 241 242 242 244 242 242 243 244 244 244 245 245 245 246 247 247
245 246 247 247 247 247 247 247 247 247 247 248 248 248 248 248 248 248 247 247 247 247 247 247 247 247 247 248 249 248 248 248 248 248 248 248 248 248 249 249 249 249 249 249 248 248 247 246 246 246 246 246 246 245 245 245 244 244 244 243 243 243 243 243 243 242 242 241 241 242 241 241 243 242 244 244 243 243 244 244 245 245 246 246 247
243 245 246 246 246 245 246 246 247 247 247 247 246 247 247 247 247 247 247 247 247 247 247 247 247 247 247 247 248 247 248 248 248 248 248 248 248 248 249 249 249 249 249 248 248 248 247 246 245 245 245 245 245 245 244 244 244 244 244 244 243 243 244 243 243 243 243 241 241 241 241 241 241 241 242 243 244 244 244 244 245 246 246 246 246
245 246 247 247 247 247 247 246 246 246 246 246 246 245 245 245 246 246 246 246 246 246 246 247 247 247 247 247 248 248 248 248 248 248 248 248 248 249 249 249 249 249 249 248 248 247 247 246 245 244 244 244 244 244 244 244 244 244 244 244 244 244 244 244 243 242 242 241 240 240 241 242 242 243 244 244 244 244 244 244 245 245 246 246 247
244 245 247 247 247 247 247 247 246 246 246 246 246 246 246 246 246 246 247 247 247 247 247 247 247 247 247 247 247 248 248 248 248 248 248 248 248 249 249 249 249 248 248 248 247 247 246 246 245 244 244 244 244 244 244 243 243 243 244 244 243 244 243 243 243 243 242 242 242 241 242 242 243 243 245 245 245 244 245 244 245 245 246 246 247
246 247 246 247 246 246 246 246 246 247 246 246 246 246 246 246 246 246 246 246 247 247 247 247 247 247 247 248 248 248 248 248 248 248 248 248 248 249 249 248 248 248 247 246 246 245 245 244 244 244 244 244 243 243 243 243 242 243 243 243 244 243 244 244 243 243 243 243 242 242 242 242 243 243 244 244 244 244 244 244 245 245 246 246 247
246 246 246 246 246 246 246 246 246 246 246 246 246 246 246 245 245 246 246 246 246 247 247 247 247 247 247 248 248 248 248 248 248 248 248 248 248 248 248 248 247 247 246 245 245 244 244 244 243 243 243 242 243 243 243 243 243 243 243 243 243 245 245 246 245 244 244 244 243 242 242 243 243 244 244 244 244 244 244 244 245 245 246 246 247
246 246 246 246 246 246 246 246 246 246 246 246 245 245 245 245 245 245 246 246 247 247 247 247 247 247 247 247 247 247 247 247 247 247 248 248 248 248 247 247 246 246 245 244 244 243 242 241 241 241 242 241 242 242 242 242 242 243 242 243 245 245 245 246 246 246 246 244 244 243 243 243 243 243 243 243 243 243 244 244 245 246 246 246 247
246 246 246 246 246 246 246 246 245 245 245 245 245 245 245 245 245 246 246 246 246 247 247 247 247 247 247 247 247 247 247 247 248 248 248 247 247 246 246 246 246 245 243 243 242 241 241 240 240 241 240 241 241 242 242 242 242 242 244 245 245 245 246 246 245 246 246 246 244 244 243 243 243 243 243 243 243 243 244 245 246 246 246 247 247
Wind_Speed
10 10 9 10 10 10 10 10 8 8 8 9 8 7 7 7 7 7 5 6 6 6 6 6 6 6 7 7 7 7 6 6 5 5 5 5 5 5 5 5 6 6 5 6 5 6 6 7 6 6 5 4 4 4 4 4 5 5 4 4 4 4 6 8 10 14 11 6 8 6 8 10 9 8 10 9 10 9 12 9 9 7 7 7 10
10 10 9 9 10 10 11 9 7 9 8 8 8 7 7 7 7 5 7 7 6 7 7 6 6 6 7 7 7 6 6 6 6 5 6 5 6 5 5 6 7 7 6 7 7 5 5 5 6 5 4 5 4 5 4 4 5 5 5 5 5 5 6 8 10 11 15 9 9 7 6 7 9 7 8 10 8 8 9 10 9 9 9 8 8
8 8 8 8 10 10 7 8 9 9 9 8 9 7 6 6 5 7 7 6 6 6 6 6 7 7 7 7 7 6 7 6 6 6 6 7 7 6 6 6 7 7 7 8 7 6 6 6 7 5 4 5 5 5 5 6 5 6 7 5 6 6 7 8 9 10 13 13 9 10 7 7 7 7 6 6 8 10 12 12 11 10 8 9 9
7 8 8 8 8 8 9 9 10 7 8 8 9 7 6 6 6 7 7 6 6 6 6 7 6 7 7 7 7 7 7 6 6 6 7 7 7 8 7 7 7 7 7 7 7 7 7 7 7 6 5 6 6 6 6 6 6 6 6 6 7 7 7 8 9 10 11 13 9 8 8 8 8 8 7 8 11 12 10 10 8 9 10 9 8
7 8 8 9 8 8 8 8 9 7 7 6 8 6 7 7 6 7 6 6 6 6 6 6 7 7 7 8 8 8 8 8 8 7 7 7 8 8 7 7 7 8 8 8 8 8 8 8 8 7 6 7 7 7 6 7 6 6 7 6 7 6 5 7 9 9 11 12 12 8 9 9 9 9 7 9 10 9 10 9 8 8 8 8 8
7 7 8 8 8 9 9 8 9 9 8 7 7 7 7 7 7 6 6 8 6 6 7 7 7 8 8 8 8 8 8 8 8 8 8 8 7 8 6 8 7 7 8 8 8 8 8 8 8 7 7 8 8 7 7 8 7 7 7 7 7 6 7 7 8 10 11 12 11 11 8 9 9 8 7 7 8 9 9 9 8 7 8 9 8
7 8 8 8 8 9 9 7 6 6 7 7 6 6 7 7 7 7 6 7 7 7 7 8 7 8 8 8 8 8 8 8 7 7 8 7 7 7 7 8 9 8 8 9 9 9 9 9 9 9 9 8 8 8 9 8 8 9 8 9 7 7 7 7 8 9 10 11 10 10 10 8 9 10 7 7 9 9 9 9 10 8 6 7 9
8 8 8 8 8 8 6 5 7 6 6 5 6 6 6 6 7 6 6 7 7 7 7 8 8 7 8 8 8 7 8 8 7 7 7 7 7 7 8 9 9 9 9 9 9 9 10 10 9 10 10 10 9 9 9 9 8 8 8 7 7 8 8 8 7 8 9 9 9 9 8 9 8 9 10 9 9 7 5 7 10 11 10 8 7
8 8 7 7 7 6 6 5 5 4 5 5 5 6 7 6 6 6 6 6 6 7 8 8 7 7 7 7 8 7 7 7 6 7 7 8 7 8 9 10 10 10 10 10 9 10 10 10 10 10 11 15 18 16 13 12 9 9 9 8 8 8 8 8 8 8 8 9 10 8 9 9 8 9 9 7 6 8 7 7 10 11 10 12 12
8 7 7 7 5 4 5 4 4 4 5 6 6 6 6 6 6 6 6 6 6 6 5 5 5 6 7 7 6 6 7 6 8 15 16 10 10 10 11 11 11 11 11 11 11 12 12 11 11 17 19 20 20 21 22 22 21 15 10 9 10 10 10 10 9 9 9 10 10 9 9 9 8 9 10 8 7 7 8 9 11 11 9 10 12
7 7 7 5 5 4 4 4 4 5 6 5 5 5 6 5 5 6 5 5 6 5 5 7 6 6 6 7 7 7 7 6 14 20 23 25 17 12 11 10 11 12 11 13 13 11 10 11 10 14 17 18 17 22 22 23 23 24 25 22 17 12 9 10 11 10 10 10 10 9 9 11 10 9 11 11 10 10 10 9 9 9 8 9 12
7 7 6 5 4 5 5 4 4 5 4 6 6 6 5 5 5 6 5 5 6 5 5 6 6 6 6 6 7 8 7 11 20 23 24 24 23 15 11 11 11 11 11 10 9 8 9 7 6 6 7 8 9 10 15 20 23 24 24 23 24 25 24 16 11 10 10 10 9 9 8 10 10 10 10 10 10 10 9 9 10 10 10 10 11
6 6 5 5 5 5 4 4 5 5 5 6 5 4 5 5 5 5 6 7 5 5 7 7 7 6 6 8 8 8 8 14 21 24 24 25 25 21 11 10 10 11 11 12 11 10 7 6 6 7 7 15 14 11 10 11 18 24 25 24 24 25 25 26 26 17 10 11 12 12 10 8 9 7 5 7 8 8 7 8 9 10 10 11 11
6 6 5 5 5 4 4 4 5 5 5 5 4 5 5 6 6 5 5 4 5 6 6 7 7 6 7 8 9 8 9 11 21 23 24 25 25 22 12 12 11 10 11 11 10 9 8 6 6 6 5 6 7 10 10 10 10 10 11 11 11 14 20 25 25 27 22 14 11 12 10 9 12 10 11 11 12 13 12 12 12 11 11 12 13
5 5 5 4 3 4 4 4 5 5 5 5 4 5 5 5 5 6 6 7 7 8 8 8 7 7 7 7 8 9 9 15 20 23 23 25 25 22 12 10 8 9 7 5 4 5 5 7 7 8 7 8 8 12 12 12 11 11 11 12 12 12 12 12 12 12 13 12 12 13 13 12 13 13 13 12 12 12 12 13 13 12 12 11 10
5 4 4 4 4 4 4 4 5 5 5 4 5 6 5 6 7 6 5 6 5 5 5 5 7 7 8 8 8 10 9 18 22 23 24 24 26 14 10 10 9 9 8 6 6 6 7 8 8 8 8 8 12 22 20 13 12 13 13 13 13 12 12 14 21 21 17 15 14 14 12 13 17 14 15 14 12 12 11 11 10 10 11 11 12
5 5 5 5 5 4 4 4 5 5 4 5 5 6 6 7 6 4 6 6 6 6 7 7 7 7 8 8 8 10 9 14 21 22 23 24 20 10 9 8 8 9 10 9 8 8 8 7 7 7 8 9 14 22 23 23 15 13 14 15 13 12 11 11 22 27 28 29 28 28 28 27 27 26 20 18 10 8 5 5 6 8 7 7 10
5 5 5 4 4 4 4 4 5 5 5 6 7 7 6 5 5 5 6 7 8 7 7 7 7 7 8 9 9 9 11 13 21 22 23 24 21 12 7 6 9 8 7 3 4 5 8 15 13 9 10 10 18 23 25 21 15 15 14 14 16 15 14 12 11 14 25 28 28 27 24 22 16 10 10 13 15 10 2 4 6 5 6 7 8
5 6 6 4 4 4 4 5 5 6 6 7 7 7 6 7 6 4 6 5 7 6 6 7 7 6 7 8 11 12 11 12 19 22 23 23 19 9 7 9 10 11 11 12 9 8 7 11 18 16 13 15 23 25 22 20 15 14 14 14 15 15 13 10 11 11 10 10 11 9 8 7 4 2 2 8 11 10 3 5 4 4 7 7 7
6 4 3 4 4 4 4 5 6 6 7 6 6 7 5 4 5 5 5 5 6 6 6 6 8 8 7 7 8 9 10 10 11 22 22 23 23 14 8 7 8 9 10 10 9 7 7 7 11 19 25 24 24 24 22 27 19 15 13 13 14 16 10 11 10 11 11 8 4 1 4 4 5 2 1 1 4 4 6 4 4 5 7 7 7
3 4 4 3 4 5 4 5 7 7 6 7 6 5 4 5 5 5 6 5 5 6 7 7 8 9 8 7 8 9 8 10 12 22 22 23 23 20 11 8 9 9 8 7 6 7 7 8 7 13 21 22 22 23 26 27 23 15 12 10 11 13 16 11 9 9 3 1 1 2 3 4 4 3 3 4 4 4 4 5 5 6 6 7 7
3 3 4 5 4 4 5 5 5 6 5 4 4 6 5 5 5 5 5 5 7 8 7 6 8 9 8 8 8 9 8 12 11 17 22 23 23 24 14 10 12 9 10 10 10 9 9 8 7 11 19 22 22 24 27 26 27 16 13 20 22 25 8 8 4 2 2 1 1 2 4 4 5 5 4 4 5 7 5 5 5 6 7 7 8
4 4 4 4 5 5 5 5 6 4 5 5 5 6 5 5 5 5 5 6 7 9 8 7 7 9 9 8 7 8 8 9 16 14 19 23 23 22 24 18 22 14 11 10 9 8 7 9 10 16 20 22 23 25 26 28 22 15 23 23 24 6 10 1 5 1 0 2 1 4 4 5 5 5 5 5 6 5 6 6 6 7 8 9 10
4 4 4 5 5 5 5 5 5 4 5 5 4 5 6 5 5 5 5 6 7 8 7 6 6 8 10 10 8 7 7 8 11 17 16 22 22 23 22 23 23 13 10 9 8 7 6 5 6 16 21 23 25 25 25 25 17 20 18 14 11 4 3 5 0 3 3 3 4 4 6 5 5 5 6 6 6 6 7 6 6 4 5 6 9
4 5 5 5 5 5 4 4 4 4 4 4 5 6 6 5 6 5 5 6 6 8 8 5 7 8 8 10 10 8 7 7 8 11 18 19 22 22 22 22 22 22 14 8 7 5 8 16 19 21 21 24 26 25 18 13 13 15 15 15 11 5 1 2 2 3 3 5 6 6 5 6 6 6 5 5 5 5 4 5 5 7 8 9 10
4 6 6 5 6 4 5 5 5 5 5 4 6 6 6 5 6 6 5 6 6 7 8 7 7 8 9 9 9 9 8 7 8 9 10 13 14 19 23 23 22 22 21 16 19 21 22 21 22 20 20 17 10 5 6 7 13 15 15 10 3 1 1 2 2 4 6 5 6 6 7 5 5 5 4 4 5 6 4 6 6 7 7 8 8
6 5 6 6 5 4 5 5 5 4 4 4 5 5 5 5 6 6 6 6 6 7 8 8 8 8 9 9 9 9 9 8 9 8 8 8 8 9 11 13 17 18 13 11 11 10 11 12 10 12 12 15 16 15 13 11 8 4 0 1 1 2 4 4 6 6 6 5 6 6 6 5 3 4 4 4 5 6 4 6 7 8 7 7 7
6 6 6 5 5 4 5 6 6 5 5 5 5 5 5 5 6 8 7 7 7 8 8 8 9 8 9 9 9 8 9 9 8 9 10 9 9 9 9 9 9 8 9 9 9 10 9 9 11 8 7 7 7 5 6 6 7 7 6 4 4 5 6 7 7 5 5 5 5 3 4 4 4 5 4 4 5 5 4 7 7 8 6 5 7
6 5 5 4 6 4 5 5 5 5 6 5 6 6 7 6 7 8 8 7 8 9 9 10 10 9 9 10 9 9 9 10 11 12 14 14 13 10 9 10 10 9 12 15 11 8 7 7 7 8 7 7 7 7 7 7 7 7 5 5 4 4 3 2 5 6 6 4 5 6 6 4 6 4 4 5 5 6 5 7 7 6 6 6 10
5 6 5 5 5 5 5 5 4 5 5 6 6 7 8 12 11 9 10 12 20 22 19 13 12 10 10 11 11 12 12 12 17 23 23 23 23 24 21 20 19 15 14 20 15 10 9 9 9 9 8 8 8 8 7 6 6 6 6 6 6 6 5 4 4 6 4 5 5 6 6 5 6 4 4 5 6 5 7 7 5 4 7 7 8
5 6 5 5 6 5 5 5 5 5 5 5 5 7 8 7 14 19 18 17 17 19 22 24 25 22 13 11 14 25 27 27 27 24 24 22 22 21 21 19 18 19 22 16 13 12 11 10 9 7 8 7 8 8 7 6 7 6 6 6 5 5 6 4 4 5 5 4 5 5 4 4 5 4 5 5 6 6 4 4 5 5 5 6 8
6 6 5 5 5 5 5 5 5 5 5 4 5 5 6 9 9 9 14 16 17 19 19 21 22 22 23 20 15 8 12 16 18 21 22 23 22 20 18 17 18 20 20 19 10 6 6 8 7 7 6 6 6 5 5 5 5 6 6 5 7 6 6 7 5 4 4 5 5 6 5 5 5 5 5 6 7 5 4 4 4 5 7 7 9
7 6 5 5 5 6 5 5 5 5 5 6 6 5 6 6 10 12 6 10 16 18 19 20 20 21 21 21 21 18 17 17 20 21 21 21 20 18 19 21 21 21 20 2 6 5 3 3 4 4 4 5 5 5 6 5 6 6 6 7 7 7 7 6 3 4 4 6 4 6 6 6 5 7 7 7 6 5 5 5 4 5 6 8 9
7 6 5 5 6 5 5 5 5 6 5 5 5 6 6 7 8 8 11 12 8 9 12 15 17 18 18 19 19 19 19 20 21 21 20 20 22 21 19 16 18 17 3 4 3 4 3 4 4 5 5 5 5 5 5 6 6 6 6 6 7 5 5 3 2 5 5 5 6 5 4 5 6 5 6 6 6 5 5 6 4 6 7 8 9
6 6 8 6 5 6 5 5 5 5 5 5 6 6 7 7 6 7 8 9 11 12 10 6 8 13 13 12 15 18 19 19 20 20 21 21 20 20 17 3 2 2 3 2 2 3 4 5 5 6 5 6 6 5 6 5 6 6 6 6 5 5 5 4 6 4 6 6 6 6 5 5 6 7 6 5 5 5 5 5 5 6 7 7 7
5 5 5 6 6 5 5 5 5 5 6 6 6 6 7 7 8 7 7 8 9 10 11 9 6 6 14 16 18 18 19 18 18 19 20 20 19 16 2 2 1 3 4 6 4 5 5 5 5 5 5 6 5 5 5 6 6 6 5 5 6 6 6 6 6 5 4 6 6 5 6 6 7 5 5 5 6 6 5 5 6 7 8 8 9
5 5 5 5 5 5 5 5 5 6 6 7 7 6 7 7 7 7 8 8 9 8 10 11 10 9 8 7 9 13 17 18 20 20 20 19 19 10 2 4 5 6 6 5 5 5 6 5 6 6 5 6 6 6 5 6 6 6 5 6 5 6 6 5 6 6 5 5 6 6 6 6 5 5 5 6 5 5 5 5 6 9 10 11 12
6 6 6 5 4 4 4 5 6 6 7 6 6 6 7 7 7 7 8 8 9 9 10 10 8 10 11 9 6 6 9 14 17 16 13 12 10 7 7 7 6 6 6 6 6 6 7 6 5 6 6 6 6 6 6 6 6 5 6 5 5 6 8 7 8 7 6 7 7 6 5 6 6 5 6 6 5 4 5 6 6 7 8 11 9
4 6 8 8 5 5 5 5 6 5 6 6 6 6 8 7 6 6 7 7 8 8 9 9 9 9 9 8 7 7 9 8 6 7 7 6 6 6 6 7 7 7 7 7 6 6 6 7 6 6 6 6 6 6 6 6 5 5 5 5 5 5 6 5 5 6 6 6 6 6 6 6 5 6 6 6 5 5 5 6 7 7 7 7 6
5 3 5 5 5 6 6 7 6 6 7 6 6 6 6 7 7 7 7 7 9 9 8 9 10 9 8 6 7 6 8 9 8 7 7 6 6 6 6 7 7 7 7 7 6 6 7 6 6 6 6 6 6 6 6 6 5 6 5 5 6 6 6 6 6 6 6 6 6 6 5 5 5 6 6 6 5 5 6 7 7 7 7 7 9
5 5 5 5 6 6 6 6 6 6 6 6 6 7 7 7 7 7 7 8 8 9 9 10 10 9 7 10 15 15 10 9 8 7 7 6 5 5 6 6 6 7 6 6 6 6 6 6 6 6 5 5 5 5 5 5 5 5 5 5 5 6 6 5 5 5 6 6 5 5 5 5 5 6 6 5 6 6 5 5 6 7 8 9 10
5 5 4 5 5 5 6 7 7 7 6 7 6 6 7 7 7 6 8 8 9 9 9 9 9 8 10 18 17 18 13 8 8 8 8 7 7 7 7 7 7 7 6 6 6 6 6 6 6 6 6 5 5 5 5 5 5 5 6 6 6 6 6 6 6 6 6 6 6 6 5 5 6 6 7 6 5 5 5 6 6 7 7 8 9
4 4 5 6 5 5 6 7 6 6 6 6 6 6 7 7 7 7 8 8 8 8 9 10 9 8 9 12 14 15 9 8 7 8 8 8 7 7 7 7 7 7 7 6 6 6 6 6 6 5 6 6 6 6 6 6 6 6 5 6 6 6 6 6 5 6 5 5 6 5 5 6 7 6 4 4 5 5 6 6 7 7 8 9 8
4 5 6 6 6 5 6 6 6 7 6 7 7 8 7 7 7 7 7 8 8 8 9 9 9 9 8 8 8 8 7 8 8 8 8 8 8 8 7 7 6 6 6 6 6 6 5 5 5 5 5 5 5 5 5 5 5 5 6 6 6 6 6 6 6 6 6 6 6 6 6 5 5 5 6 6 5 5 6 6 7 7 8 7 8
4 4 5 6 6 6 7 5 6 7 8 7 6 6 7 6 7 7 7 8 9 8 8 8 8 8 8 8 7 7 7 7 8 8 8 8 8 7 7 7 6 6 6 6 5 5 5 5 5 5 5 5 5 5 5 5 5 5 5 6 6 6 6 6 6 6 6 5 6 5 4 5 5 5 5 5 5 5 6 6 6 8 9 9 8
4 5 6 6 7 7 7 6 7 6 6 6 7 7 6 6 7 7 8 8 8 8 8 8 8 8 8 8 7 8 7 7 7 7 8 7 7 7 6 6 6 6 6 5 5 5 5 5 5 5 5 5 5 5 5 5 5 5 5 5 6 6 6 5 4 5 5 5 5 5 5 5 5 6 7 6 6 6 6 6 6 7 8 9 10
4 5 6 6 7 8 8 7 6 6 6 6 6 6 7 7 6 7 8 8 8 9 8 8 7 8 7 7 7 7 7 7 7 7 7 8 8 7 7 6 6 6 5 5 5 5 5 5 5 5 5 5 5 5 5 4 4 4 4 5 5 5 5 4 5 5 5 5 5 5 5 5 6 5 7 6 5 5 6 6 7 8 9 9 9
5 6 6 7 6 7 7 6 7 7 7 7 6 7 7 7 7 7 7 7 7 8 8 7 7 7 7 7 7 7 7 7 7 7 7 7 7 7 6 6 6 5 5 5 4 4 4 4 5 5 5 5 4 5 5 4 4 4 4 4 5 5 6 7 5 5 5 5 5 5 5 6 5 6 5 6 5 5 6 6 6 8 8 9 9
6 6 6 6 6 6 7 7 7 6 7 6 7 7 7 7 7 7 7 7 7 7 7 7 7 7 7 7 7 7 7 7 7 7 7 7 6 6 6 6 5 5 5 4 4 4 4 4 4 5 5 5 5 5 5 4 4 4 4 4 6 10 11 11 7 5 7 6 5 5 5 6 6 6 5 5 5 5 6 6 7 9 9 9 9
5 5 6 6 6 6 6 6 6 6 7 7 7 7 7 7 7 7 7 7 7 7 7 7 7 7 7 7 7 7 7 7 7 7 6 6 6 5 5 5 5 5 5 4 4 4 4 3 4 4 4 4 5 5 4 4 4 5 4 5 8 10 10 11 12 11 8 4 6 5 6 6 6 5 4 5 5 6 7 7 8 9 9 9 9
6 6 6 6 6 6 6 6 6 6 6 6 7 7 7 7 7 7 7 7 7 7 7 7 7 7 7 7 7 7 7 7 7 6 6 5 5 5 5 5 6 5 4 4 4 3 3 3 3 3 3 3 3 4 4 4 4 4 5 7 9 9 10 10 7 8 11 8 5 6 6 6 4 5 5 5 5 5 8 9 9 8 8 8 9
Wind_Direction
203 209 200 204 202 198 199 178 185 180 184 184 205 210 213 208 210 213 202 210 205 213 214 221 222 223 221 218 215 215 214 219 211 214 219 226 231 238 243 242 250 254 253 257 254 255 255 256 254 252 251 254 252 256 257 254 253 251 247 251 255 250 259 263 266 279 283 269 281 291 292 299 298 288 287 292 297 301 301 307 312 315 313 311 307
203 204 199 195 198 202 186 179 169 169 184 184 208 209 211 208 210 205 206 217 200 214 219 221 223 221 220 219 218 217 219 217 215 210 222 232 241 235 240 244 250 256 254 259 256 256 253 255 255 252 248 251 250 252 247 248 245 249 245 243 249 251 247 263 268 276 287 293 291 281 273 264 274 285 290 291 294 300 312 308 306 303 300 294 294
199 193 189 188 197 200 181 177 161 178 180 188 205 212 215 214 206 209 215 214 211 211 222 224 223 221 223 222 219 222 219 221 216 216 224 233 241 242 239 241 247 253 257 259 259 257 257 254 255 252 247 253 250 251 245 247 243 243 248 243 250 247 246 251 266 273 279 283 285 294 293 283 276 283 284 304 307 306 301 299 295 293 288 291 290
186 181 186 192 189 185 183 173 168 185 193 192 197 217 216 217 209 214 216 214 214 223 217 225 225 221 225 224 222 224 224 221 221 219 226 232 239 241 242 239 240 247 253 258 258 257 256 258 254 251 249 252 254 249 245 244 243 246 246 245 244 247 244 247 253 264 273 283 283 283 289 296 292 295 300 292 297 295 287 285 288 287 286 284 282
177 185 183 185 185 185 189 185 176 188 203 196 218 220 219 217 211 213 214 218 218 218 228 217 223 225 224 226 227 226 224 221 223 224 227 229 237 242 241 241 242 247 249 252 252 251 252 249 251 247 243 247 249 249 248 247 245 243 247 247 246 246 246 250 256 258 268 272 282 281 287 284 288 286 286 286 280 278 282 280 277 275 282 285 292
183 179 180 183 185 188 184 175 181 193 196 211 219 220 216 213 213 214 208 221 219 218 218 222 218 227 226 228 228 229 224 222 221 226 230 233 236 238 237 239 245 247 250 250 250 247 248 248 248 244 243 239 242 245 245 248 248 245 245 248 246 249 251 253 254 259 263 269 275 284 278 285 284 278 270 266 277 283 288 290 288 290 289 291 284
181 181 182 187 184 188 168 183 185 191 206 216 216 214 213 211 209 213 211 213 216 220 224 223 229 227 231 229 230 228 227 224 224 227 233 234 233 236 237 242 247 249 249 250 248 247 243 244 244 240 238 234 235 236 241 243 241 244 242 244 243 246 249 249 249 254 259 267 268 268 278 272 275 283 282 269 267 270 285 295 298 289 281 284 291
181 184 179 184 187 185 173 177 179 206 211 212 214 212 210 209 210 213 207 216 217 222 223 228 231 225 230 229 231 226 226 227 227 230 232 235 233 234 236 244 247 249 249 247 246 244 242 241 241 238 234 234 233 235 232 239 236 242 239 238 238 241 244 245 247 249 256 258 261 269 264 273 270 271 280 284 284 279 277 282 284 293 297 286 275
179 180 176 182 190 181 157 183 198 201 211 211 211 211 208 210 210 210 212 219 225 225 230 230 231 236 234 232 234 230 227 229 225 228 234 238 228 236 243 244 245 248 249 247 244 241 238 236 235 235 233 236 236 235 231 229 226 237 237 228 234 236 241 239 240 245 249 254 263 259 265 262 262 270 273 264 260 266 263 269 279 282 289 294 289
175 174 181 188 184 179 180 184 194 202 206 211 210 210 210 210 210 215 221 225 228 230 233 236 232 233 238 240 239 234 235 231 232 236 245 237 224 236 239 242 242 240 241 241 237 231 231 229 229 232 235 237 239 242 243 244 242 233 229 223 231 232 232 238 235 234 243 252 255 260 260 259 258 258 264 258 256 259 266 264 271 276 278 278 279
175 174 189 186 177 174 176 196 196 209 213 213 211 208 215 210 218 225 229 230 230 233 230 235 237 238 238 240 242 240 238 237 241 255 263 265 263 249 238 234 224 227 228 238 245 236 222 218 219 230 236 241 244 247 251 252 254 254 252 246 236 224 218 233 238 235 243 247 253 252 253 261 257 258 258 264 257 256 254 256 259 270 271 276 283
175 184 187 172 174 180 192 195 201 219 211 217 213 216 218 218 221 225 229 235 238 227 234 237 239 240 242 243 244 243 244 242 253 263 266 266 265 261 253 251 248 244 242 234 230 231 232 222 214 210 222 229 236 247 254 257 257 258 259 260 263 264 262 257 252 249 242 249 249 238 239 244 256 251 258 255 255 251 248 248 251 256 260 262 267
177 181 180 177 186 190 189 196 210 219 219 217 220 214 216 224 229 233 236 233 235 234 238 239 240 236 236 243 246 245 244 250 262 267 270 270 272 272 267 262 258 257 253 250 247 246 236 228 232 234 232 242 248 245 241 244 251 255 257 260 261 261 262 264 265 263 252 250 251 253 244 263 260 254 249 254 252 255 250 248 247 248 249 256 260
177 185 178 188 191 189 194 200 217 225 222 219 216 222 219 228 231 231 238 244 234 241 242 241 242 238 233 238 244 246 248 248 262 268 270 271 272 273 267 262 257 254 252 246 242 233 220 212 223 228 223 234 242 251 252 251 251 252 257 260 259 258 259 262 265 270 273 271 271 270 268 263 263 261 257 260 263 263 262 263 261 261 256 250 253
181 183 190 197 186 195 200 206 224 229 224 219 219 226 226 239 239 234 231 234 235 235 238 243 243 238 240 240 243 249 247 250 262 268 270 272 272 274 271 264 255 253 248 241 216 203 202 215 221 234 234 239 238 243 245 248 250 250 251 252 248 247 248 249 252 254 257 258 256 253 250 245 249 251 249 248 247 250 248 249 251 255 264 275 278
188 177 198 204 201 205 200 218 226 230 225 223 224 235 235 233 239 241 235 241 242 244 251 241 246 244 242 240 245 254 254 258 268 271 274 275 277 278 274 270 269 264 255 225 219 215 218 219 223 229 235 238 242 250 250 242 235 242 246 246 249 249 247 246 249 245 240 237 240 243 241 240 242 238 237 235 241 252 257 256 259 261 263 261 262
198 197 210 210 208 208 208 216 230 229 225 226 233 236 240 244 244 228 238 241 242 236 237 238 237 239 244 241 243 254 259 261 268 272 274 275 277 273 270 268 267 265 258 251 227 219 217 214 219 227 231 238 241 250 253 255 248 236 237 242 245 246 247 248 257 261 261 258 251 246 245 245 252 259 267 273 280 273 244 250 244 247 249 254 260
205 203 216 214 214 214 216 214 226 230 224 228 233 238 235 243 239 224 225 238 243 238 238 245 242 235 238 243 238 249 260 261 268 272 274 275 275 270 251 239 253 256 263 238 198 217 216 224 226 224 233 237 245 252 253 252 248 248 250 248 249 249 250 242 243 253 264 272 276 282 290 296 309 347 334 316 314 325 42 283 274 306 290 283 285
210 214 221 213 217 215 216 216 221 224 226 231 228 233 234 231 234 222 230 235 244 242 241 245 250 244 234 242 248 250 259 263 268 274 276 277 278 271 261 264 259 258 258 257 240 222 222 231 241 245 240 240 247 252 250 245 243 242 241 246 247 247 247 238 239 243 240 253 272 296 311 320 360 13 322 318 308 309 281 250 273 248 257 263 267
218 208 208 212 214 217 211 215 220 218 228 233 230 231 234 241 239 234 237 227 243 243 244 245 253 255 247 241 248 249 257 263 262 270 274 275 275 273 262 249 245 245 243 246 242 223 217 225 233 248 258 258 255 251 248 248 245 241 239 243 245 250 244 243 228 229 239 236 229 236 276 297 309 327 321 298 283 278 275 241 235 249 256 263 267
193 198 205 209 218 220 218 210 222 227 221 227 230 236 223 232 239 232 240 243 244 253 247 250 254 261 256 250 252 253 245 257 263 270 274 276 275 274 269 258 261 261 262 252 234 235 229 226 227 237 252 260 262 263 264 266 267 256 243 224 239 241 238 237 242 243 111 184 247 277 286 295 292 294 299 294 279 271 264 253 240 243 252 257 260
190 193 206 217 220 223 222 228 219 225 231 226 240 247 240 232 237 239 239 242 249 253 253 251 256 263 263 256 250 255 249 248 261 267 273 276 275 273 269 259 261 258 257 250 246 235 227 223 222 232 243 255 259 262 266 268 268 267 264 263 260 270 280 112 119 127 162 158 237 267 276 284 289 285 272 267 270 276 275 268 253 245 250 252 255
195 205 214 222 227 226 228 223 229 221 231 222 227 247 244 238 243 232 237 247 250 258 258 255 260 266 271 264 256 253 254 255 257 262 269 274 275 274 270 268 264 262 257 252 242 239 220 221 223 230 242 253 256 255 257 262 267 267 270 275 281 298 112 45 119 138 219 245 222 265 267 266 276 272 269 271 267 263 269 269 263 255 252 250 250
193 210 220 227 232 234 230 232 230 230 230 230 230 243 251 243 244 233 232 240 252 259 259 252 253 263 268 272 262 251 251 254 256 258 263 268 272 272 271 269 268 260 256 252 250 241 237 228 214 242 250 250 251 255 260 264 270 278 285 289 302 109 120 126 254 147 217 231 251 251 260 252 244 258 255 250 259 258 260 259 262 261 271 280 276
197 218 227 231 234 236 237 234 235 231 233 216 237 242 254 239 251 239 224 240 244 252 262 246 250 258 265 266 272 267 254 249 256 257 259 261 267 270 272 272 273 277 278 286 279 265 255 257 253 247 244 248 256 267 280 300 300 295 297 290 284 116 136 151 177 194 186 227 235 248 244 247 236 242 249 249 258 271 281 286 283 278 271 267 265
213 228 232 236 240 234 243 255 243 240 240 224 228 235 238 245 247 251 225 239 237 246 258 255 253 254 258 264 267 270 266 257 258 259 256 260 262 266 271 276 279 279 277 277 277 276 273 273 274 273 270 273 280 278 277 271 274 272 274 276 105 180 146 180 193 206 233 229 235 241 248 241 245 235 249 263 267 263 265 276 280 275 272 271 275
225 237 239 242 249 228 236 255 257 247 236 235 231 235 234 238 244 253 238 240 246 245 250 253 256 253 256 260 266 266 266 262 259 258 256 251 248 254 261 265 266 269 271 270 275 272 270 267 258 257 254 257 260 261 259 263 274 291 27 96 215 196 210 197 205 213 229 234 238 246 244 247 250 262 253 255 260 261 248 267 268 268 266 261 263
228 238 240 237 247 234 240 251 251 258 246 231 246 249 237 225 236 241 236 230 240 252 249 250 249 249 252 258 260 264 262 258 252 251 252 247 245 244 244 247 250 245 254 260 253 254 254 261 264 264 269 276 276 280 272 260 252 250 252 227 212 209 210 223 227 206 221 221 236 240 260 247 246 239 251 246 252 258 256 260 260 266 259 276 277
235 247 248 248 256 244 238 245 247 253 263 253 242 232 239 232 235 249 233 219 223 241 253 251 243 233 239 248 247 251 256 251 246 238 238 233 236 242 235 231 232 234 236 241 247 246 247 250 246 251 243 247 243 241 241 244 243 232 241 246 223 206 218 189 231 240 237 233 245 241 249 241 248 241 253 262 259 263 251 256 255 260 271 258 262
248 255 243 244 254 251 251 251 250 250 253 262 269 273 233 239 235 232 257 238 234 236 237 239 236 227 237 235 222 232 242 245 254 260 265 264 249 235 233 233 229 229 230 238 239 244 240 242 240 238 239 233 238 238 237 230 240 245 238 234 220 201 207 216 215 229 221 224 230 236 240 236 252 246 250 257 269 258 252 252 259 249 267 264 269
250 258 252 250 244 244 247 255 250 245 250 255 261 274 293 269 263 270 275 281 281 273 273 272 273 267 250 238 237 235 240 248 257 264 271 271 276 284 288 287 279 263 248 239 237 238 240 236 238 230 235 235 238 242 239 239 238 234 238 232 229 226 231 222 227 215 225 232 236 231 233 230 241 246 250 258 262 261 248 249 253 260 260 273 275
245 252 244 250 250 250 248 250 260 258 262 251 255 269 279 294 292 249 262 271 269 274 278 281 282 285 285 284 285 276 270 278 283 287 286 285 289 292 296 296 288 284 279 277 265 244 229 240 237 231 229 231 239 238 233 229 233 227 233 236 243 226 223 229 226 208 229 232 235 238 236 239 240 248 253 253 255 256 260 269 262 266 267 263 262
242 255 250 254 252 253 254 252 255 251 263 266 266 252 266 276 287 303 275 263 277 281 280 279 282 288 291 294 297 297 296 292 287 283 287 294 300 300 290 281 276 272 276 220 184 225 198 205 214 229 222 236 238 233 240 234 235 235 219 224 233 226 217 223 218 215 218 221 228 236 238 240 241 248 255 258 260 268 265 266 263 265 269 273 272
235 242 248 248 253 257 248 249 252 255 249 253 255 263 255 255 268 272 297 307 292 268 267 275 284 289 290 292 293 295 296 295 297 300 299 294 286 285 281 278 278 290 104 158 143 202 217 231 238 239 243 243 244 239 243 239 233 238 236 230 235 231 233 217 210 231 236 240 241 240 233 233 239 247 253 254 250 251 258 262 268 269 270 264 270
244 253 253 252 241 248 251 251 252 257 258 252 256 256 259 259 254 268 274 281 291 297 300 278 266 271 280 284 285 285 287 289 289 289 289 285 285 282 287 349 355 9 43 92 176 212 211 232 230 235 230 237 238 230 242 241 242 239 236 237 227 225 229 224 224 222 229 237 234 234 232 235 241 241 240 246 254 254 255 262 262 262 267 268 265
243 246 253 251 251 250 250 251 247 250 254 258 253 255 260 260 263 265 265 266 275 285 291 287 279 267 276 279 281 285 287 288 288 284 279 280 278 283 36 323 326 269 282 286 269 234 217 222 229 232 225 231 231 232 232 239 234 237 233 229 230 218 218 221 226 226 229 225 231 232 236 238 233 239 248 254 248 249 249 257 268 269 270 266 265
240 245 251 247 241 244 250 249 251 248 253 258 260 264 261 260 262 264 266 270 273 274 276 291 300 291 272 254 270 279 283 287 290 293 292 292 297 320 325 250 230 250 236 241 242 245 241 234 220 235 221 233 222 227 227 235 233 234 239 229 227 224 225 216 223 221 229 234 235 237 232 233 234 239 236 246 248 242 251 261 265 270 272 273 276
242 245 249 253 257 256 263 261 257 255 257 258 256 256 265 265 264 262 269 274 272 277 284 287 285 286 294 291 286 281 279 281 284 286 290 294 294 285 284 277 267 248 247 230 233 232 237 235 222 224 232 224 233 224 228 232 231 227 230 236 229 225 228 226 231 227 222 229 232 229 227 233 228 233 242 240 242 245 255 262 264 269 271 276 277
252 250 253 256 256 254 254 265 269 265 265 259 256 257 264 268 268 268 266 265 272 273 275 277 278 280 278 286 292 284 287 285 276 269 263 248 245 242 244 251 249 254 244 241 231 233 232 237 229 225 226 227 225 228 221 232 223 229 225 229 232 231 234 233 228 236 238 236 236 229 228 231 235 237 235 236 244 245 256 263 264 261 264 264 261
262 265 263 258 267 263 265 266 272 270 267 270 269 258 263 264 265 270 271 272 274 274 272 274 276 274 279 281 276 281 276 274 272 267 264 260 248 242 233 242 244 243 246 244 235 232 237 235 230 228 226 222 223 223 223 220 225 225 222 221 226 229 226 221 228 229 235 234 236 238 233 236 235 237 240 235 239 247 253 259 260 266 271 274 276
258 262 267 266 260 271 271 267 267 263 268 261 263 267 264 267 269 269 269 270 273 274 274 273 273 275 274 274 280 283 280 281 281 280 277 278 269 259 253 248 245 249 245 245 242 236 231 232 228 227 225 222 218 219 217 219 219 226 222 225 221 228 224 223 223 228 232 234 233 234 233 235 236 232 237 240 247 252 251 264 277 277 275 274 276
261 269 270 270 269 273 276 273 266 262 262 268 269 265 268 270 269 268 269 271 271 271 276 276 275 279 277 282 286 289 288 284 287 286 284 278 275 272 264 260 253 251 250 244 242 239 233 227 225 221 221 220 213 217 212 216 219 219 225 223 226 222 224 224 224 225 225 231 235 233 236 233 235 228 232 240 235 242 262 263 264 270 270 273 273
259 258 264 273 273 267 269 272 274 276 271 266 262 258 260 264 267 266 271 270 272 274 277 280 283 283 282 285 285 286 279 274 272 274 274 273 270 268 266 260 256 251 249 246 240 236 232 227 222 217 217 217 212 208 208 213 210 217 219 225 222 223 223 225 223 229 227 230 235 239 236 237 242 245 250 258 261 256 254 266 272 271 272 274 275
263 273 274 273 272 273 266 269 275 267 266 263 263 268 268 269 269 272 273 275 275 275 274 277 282 284 284 285 281 279 273 274 272 273 272 272 269 269 267 265 260 254 249 245 240 231 228 223 222 220 216 216 213 208 209 213 207 211 217 219 222 221 221 223 222 227 226 228 233 236 236 233 236 237 242 247 242 252 262 263 267 270 276 275 275
270 277 278 281 275 271 274 263 261 269 270 273 275 270 267 267 271 271 271 272 276 275 275 277 279 280 282 282 279 276 275 274 274 273 274 273 274 271 271 269 266 259 251 245 236 231 221 222 215 215 215 216 211 210 213 215 213 215 217 216 219 224 222 216 220 221 222 225 232 234 239 234 240 239 243 244 241 249 258 262 266 282 283 278 279
274 275 277 278 280 275 274 272 267 266 270 272 275 279 272 264 262 265 268 270 270 274 276 277 277 278 279 281 280 279 279 280 277 276 277 277 277 276 273 268 265 260 252 244 237 228 221 213 210 207 212 215 211 209 212 213 215 218 219 220 221 224 223 220 215 214 220 223 228 231 240 243 242 238 241 238 239 245 247 264 271 272 271 276 276
277 273 274 275 274 278 277 279 282 277 272 271 267 269 274 272 268 267 267 267 273 277 278 280 282 281 281 279 281 281 282 281 283 282 280 280 278 277 274 270 267 261 253 244 237 229 221 214 206 206 209 213 209 210 210 210 210 216 219 216 219 224 224 224 215 219 223 223 223 224 231 238 246 243 250 260 265 265 269 270 273 273 273 275 280
273 273 270 271 275 278 280 281 277 277 277 275 274 272 273 276 276 275 278 278 277 277 278 278 278 280 282 283 284 284 284 284 283 284 283 282 280 278 274 270 264 259 252 249 239 227 215 212 209 206 209 211 208 211 213 213 212 215 221 221 215 215 223 221 219 223 223 226 227 230 231 238 242 242 242 241 244 251 266 271 274 275 276 277 279
275 273 275 274 270 272 277 282 281 281 280 283 282 280 279 277 276 277 277 277 276 277 276 279 281 282 282 285 288 286 285 285 285 285 285 282 281 278 276 272 266 261 254 246 239 227 219 213 206 205 208 211 209 212 213 209 213 213 221 218 225 226 230 232 229 219 225 223 225 229 236 237 239 240 237 241 252 263 268 271 272 276 279 278 277
274 273 273 276 276 276 274 271 274 276 279 277 278 281 282 280 280 279 279 280 281 281 282 282 282 285 286 290 291 291 289 287 288 286 285 283 282 279 279 274 274 267 256 244 238 230 218 211 207 207 207 211 215 216 214 212 213 216 214 221 228 232 236 241 247 246 243 225 227 231 233 237 227 228 235 248 256 264 267 269 272 275 276 277 278
277 277 272 271 275 278 278 279 278 274 272 273 276 276 281 281 281 282 284 284 285 286 285 286 285 288 289 288 287 290 289 287 285 286 284 283 281 279 282 285 280 274 262 248 245 234 225 213 207 210 207 216 215 221 221 224 222 220 224 228 234 240 245 248 248 251 252 248 228 232 227 223 224 237 246 251 254 251 264 272 274 274 277 277 279